Location: T�bingen+AIT
(48.5342°N, 9.0700°E)
Time: 20:26:18
(UTC+02:00)

Meteor 2-8 Rocket - Pass Details

Date: 14 September 2017
Orbit: 937 x 957 km, 82.5° (Epoch: 19 September)

Event Time Altitude Azimuth Distance (km) Brightness Sun altitude
Rises 21:39:39 0° 351° (N) 3,648 8.1 -19.9°
Reaches altitude 10° 21:42:11 10° 353° (N) 2,697 7.3 -20.2°
Maximum altitude 21:48:22 76° 79° (E) 985 4.3 -21.1°
Enters shadow 21:51:15 33° 159° (SSE) 1,533 5.1 -21.5°
